Weather History for KCOQ - May, 2014

Change the Weather History Date:

Friday, May 30, 2014

  Actual Average Record
Temperature  
Mean Temperature 60 °F -  
Max Temperature 75 °F 63 °F 87 °F (2002)
Min Temperature 44 °F 40 °F 35 °F (2001)
Degree Days  
Heating Degree Days 6    
Growing Degree Days 10 (Base 50)    
Moisture  
Dew Point 46 °F    
Average Humidity 64    
Maximum Humidity 93    
Minimum Humidity 40    
Precipitation  
Precipitation 0.00 in - - ()
Sea Level Pressure  
Sea Level Pressure 30.13 in    
Wind  
Wind Speed 5 mph (ESE)    
Max Wind Speed 9 mph    
Max Gust Speed -    
Visibility 10 miles    
Events      
Averages and records for this station are not official NWS values.
T = Trace of Precipitation, MM = Missing Value Source: NWS Daily Summary

Daily Weather History Graph

Daily Weather History Graph

Search for Another Location

Airport or City:

Trip Planner

Search our weather history database for the weather conditions in past years. The results will help you decide how hot, cold, wet, or windy it might be!

Date:

Astronomy

May. 30, 2014 Rise Set
Actual Time 5:21 AM CDT 8:54 PM CDT
Civil Twilight 4:43 AM CDT 9:32 PM CDT
Nautical Twilight 3:53 AM CDT 10:23 PM CDT
Astronomical Twilight 2:46 AM CDT 11:30 PM CDT
Moon 7:09 AM CDT (5/30) 10:26 PM CDT (5/30)
Length of Visible Light 16h 49m
Length of Day
15h 33m
Waxing Crescent, 4% of the Moon is Illuminated
May 30
Waxing Crescent
Jun 5
First Quarter
Jun 12
Full
Jun 19
Last Quarter
Jun 27
New

Hourly Weather History & Observations

Time (CDT) Temp. Windchill Dew Point Humidity Pressure Visibility Wind Dir Wind Speed Gust Speed Precip Events Conditions
12:16 AM 53.6 °F - 44.6 °F 72% 30.11 in 10.0 mi East 4.6 mph - N/A   Clear
12:37 AM 51.8 °F - 44.6 °F 76% 30.10 in 10.0 mi ESE 4.6 mph - N/A   Clear
12:56 AM 51.8 °F - 44.6 °F 76% 30.11 in 10.0 mi ESE 5.8 mph - N/A   Clear
1:16 AM 51.8 °F - 44.6 °F 76% 30.11 in 10.0 mi ESE 5.8 mph - N/A   Clear
1:37 AM 50.0 °F - 42.8 °F 76% 30.13 in 10.0 mi East 3.5 mph - N/A   Clear
1:56 AM 50.0 °F - 42.8 °F 76% 30.13 in 10.0 mi East 3.5 mph - N/A   Clear
2:16 AM 48.2 °F - 42.8 °F 82% 30.14 in 10.0 mi East 3.5 mph - N/A   Clear
2:37 AM 48.2 °F - 42.8 °F 82% 30.14 in 10.0 mi Calm Calm - N/A   Clear
2:56 AM 48.2 °F - 42.8 °F 82% 30.15 in 10.0 mi Calm Calm - N/A   Clear
3:16 AM 46.4 °F - 42.8 °F 87% 30.16 in 10.0 mi Calm Calm - N/A   Clear
3:37 AM 46.4 °F - 42.8 °F 87% 30.16 in 10.0 mi Calm Calm - N/A   Clear
4:16 AM 46.4 °F - 42.8 °F 87% 30.16 in 10.0 mi Calm Calm - N/A   Clear
4:37 AM 46.4 °F 45.2 °F 42.8 °F 87% 30.16 in 10.0 mi East 3.5 mph - N/A   Clear
4:56 AM 44.6 °F 43.1 °F 42.8 °F 93% 30.16 in 10.0 mi ESE 3.5 mph - N/A   Clear
5:16 AM 44.6 °F 43.1 °F 42.8 °F 93% 30.17 in 10.0 mi ESE 3.5 mph - N/A   Clear
5:36 AM 44.6 °F 43.1 °F 42.8 °F 93% 30.17 in 10.0 mi East 3.5 mph - N/A   Clear
5:56 AM 44.6 °F - 42.8 °F 93% 30.17 in 10.0 mi Calm Calm - N/A   Clear
6:17 AM 44.6 °F 43.1 °F 42.8 °F 93% 30.17 in 10.0 mi ESE 3.5 mph - N/A   Clear
6:36 AM 46.4 °F 43.5 °F 42.8 °F 87% 30.17 in 10.0 mi East 5.8 mph - N/A   Clear
6:56 AM 48.2 °F - 42.8 °F 82% 30.17 in 10.0 mi ESE 4.6 mph - N/A   Clear
7:17 AM 50.0 °F - 44.6 °F 82% 30.17 in 10.0 mi East 4.6 mph - N/A   Clear
7:36 AM 51.8 °F - 44.6 °F 76% 30.17 in 10.0 mi ESE 4.6 mph - N/A   Clear
7:57 AM 53.6 °F - 44.6 °F 72% 30.17 in 10.0 mi East 3.5 mph - N/A   Clear
8:16 AM 55.4 °F - 44.6 °F 67% 30.17 in 10.0 mi East 6.9 mph - N/A   Clear
8:37 AM 57.2 °F - 44.6 °F 63% 30.18 in 10.0 mi East 6.9 mph - N/A   Clear
8:57 AM 60.8 °F - 46.4 °F 59% 30.18 in 10.0 mi ESE 5.8 mph - N/A   Clear
9:16 AM 60.8 °F - 46.4 °F 59% 30.18 in 10.0 mi ESE 8.1 mph - N/A   Clear
9:37 AM 62.6 °F - 46.4 °F 55% 30.17 in 10.0 mi ESE 8.1 mph - N/A   Clear
9:56 AM 64.4 °F - 46.4 °F 52% 30.17 in 10.0 mi ESE 6.9 mph - N/A   Clear
10:16 AM 66.2 °F - 48.2 °F 52% 30.16 in 10.0 mi ESE 9.2 mph - N/A   Clear
10:37 AM 66.2 °F - 48.2 °F 52% 30.17 in 10.0 mi East 5.8 mph - N/A   Clear
10:56 AM 66.2 °F - 48.2 °F 52% 30.16 in 10.0 mi ESE 5.8 mph - N/A   Clear
11:16 AM 69.8 °F - 50.0 °F 49% 30.16 in 10.0 mi SE 4.6 mph - N/A   Clear
11:37 AM 69.8 °F - 51.8 °F 53% 30.15 in 10.0 mi ESE 4.6 mph - N/A   Clear
11:56 AM 71.6 °F - 51.8 °F 50% 30.15 in 10.0 mi ESE 5.8 mph - N/A   Clear
12:16 PM 73.4 °F - 51.8 °F 47% 30.14 in 10.0 mi ESE 5.8 mph - N/A   Clear
12:37 PM 75.2 °F - 51.8 °F 44% 30.14 in 10.0 mi ESE 8.1 mph - N/A   Clear
1:17 PM 75.2 °F - 51.8 °F 44% 30.13 in 10.0 mi East 6.9 mph - N/A   Clear
1:37 PM 75.2 °F - 53.6 °F 47% 30.13 in 10.0 mi ESE 8.1 mph - N/A   Clear
1:56 PM 75.2 °F - 53.6 °F 47% 30.13 in 10.0 mi ESE 6.9 mph - N/A   Clear
2:17 PM 75.2 °F - 53.6 °F 47% 30.13 in 10.0 mi SE 8.1 mph - N/A   Clear
2:36 PM 75.2 °F - 51.8 °F 44% 30.13 in 10.0 mi ESE 6.9 mph - N/A   Clear
2:56 PM 75.2 °F - 51.8 °F 44% 30.12 in 10.0 mi ESE 5.8 mph - N/A   Clear
3:17 PM 75.2 °F - 50.0 °F 41% 30.12 in 10.0 mi ESE 9.2 mph - N/A   Clear
3:36 PM 73.4 °F - 48.2 °F 41% 30.12 in 10.0 mi ESE 8.1 mph - N/A   Clear
4:17 PM 71.6 °F - 50.0 °F 46% 30.11 in 10.0 mi East 8.1 mph - N/A   Clear
4:36 PM 71.6 °F - 48.2 °F 43% 30.10 in 10.0 mi ESE 8.1 mph - N/A   Clear
5:17 PM 69.8 °F - 44.6 °F 40% 30.09 in 10.0 mi East 8.1 mph - N/A   Clear
5:36 PM 69.8 °F - 46.4 °F 43% 30.09 in 10.0 mi ESE 9.2 mph - N/A   Clear
5:56 PM 68.0 °F - 46.4 °F 46% 30.08 in 10.0 mi ESE 8.1 mph - N/A   Clear
6:17 PM 68.0 °F - 46.4 °F 46% 30.07 in 10.0 mi ESE 8.1 mph - N/A   Clear
6:36 PM 66.2 °F - 46.4 °F 49% 30.07 in 10.0 mi ESE 6.9 mph - N/A   Clear
6:57 PM 64.4 °F - 46.4 °F 52% 30.07 in 10.0 mi East 4.6 mph - N/A   Clear
7:17 PM 64.4 °F - 44.6 °F 49% 30.07 in 10.0 mi East 5.8 mph - N/A   Clear
7:36 PM 62.6 °F - 44.6 °F 52% 30.07 in 10.0 mi East 9.2 mph - N/A   Clear
7:57 PM 62.6 °F - 44.6 °F 52% 30.07 in 10.0 mi East 8.1 mph - N/A   Clear
8:16 PM 60.8 °F - 44.6 °F 55% 30.08 in 10.0 mi East 3.5 mph - N/A   Clear
8:36 PM 60.8 °F - 44.6 °F 55% 30.09 in 10.0 mi East 5.8 mph - N/A   Clear
8:57 PM 59.0 °F - 44.6 °F 59% 30.10 in 10.0 mi East 3.5 mph - N/A   Clear
9:16 PM 57.2 °F - 44.6 °F 63% 30.10 in 10.0 mi East 5.8 mph - N/A   Clear
9:36 PM 55.4 °F - 44.6 °F 67% 30.10 in 10.0 mi ESE 4.6 mph - N/A   Clear
9:57 PM 53.6 °F - 44.6 °F 72% 30.10 in 10.0 mi ESE 4.6 mph - N/A   Clear
10:16 PM 51.8 °F - 44.6 °F 76% 30.10 in 10.0 mi ESE 6.9 mph - N/A   Clear
10:36 PM 51.8 °F - 44.6 °F 76% 30.10 in 10.0 mi ESE 4.6 mph - N/A   Clear
10:57 PM 51.8 °F - 44.6 °F 76% 30.10 in 10.0 mi ESE 4.6 mph - N/A   Clear
11:16 PM 50.0 °F - 42.8 °F 76% 30.09 in 10.0 mi ESE 4.6 mph - N/A   Clear
11:36 PM 50.0 °F - 42.8 °F 76% 30.10 in 10.0 mi Calm Calm - N/A   Scattered Clouds
11:57 PM 48.2 °F - 42.8 °F 82% 30.10 in 10.0 mi ESE 3.5 mph - N/A   Scattered Clouds